Location: Unspecified
(44.0704°N, 88.6889°W)
Time: 03:17:01
(UTC+02:00)

Transit 2A - Pass Details

Date: 23 June 2019
Orbit: 595 x 964 km, 66.7° (Epoch: 22 July)

Event Time Altitude Azimuth Distance (km) Brightness Sun altitude
Rises 15:35:03 0° 332° (NNW) 3,484 9.2 33.4°
Reaches altitude 10° 15:37:55 10° 342° (NNW) 2,484 8.6 33.9°
Maximum altitude 15:43:01 32° 45° (NE) 1,332 8.3 34.8°
Drops below altitude 10° 15:47:38 10° 109° (ESE) 2,246 9.6 35.6°
Sets 15:50:06 0° 119° (ESE) 3,103 9.9 36.1°
